Location: Newark
(44.3867°N, 6.6531°E)
Time: 15:39:10
(UTC+00:00)

Envisat - Pass Details

Date: 31 January 2020
Orbit: 764 x 766 km, 98.1° (Epoch: 17 February)

Event Time Altitude Azimuth Distance (km) Brightness Sun altitude
Rises 18:45:19 0° 214° (SSW) 3,220 6.7 -22.4°
Reaches altitude 10° 18:48:41 10° 237° (WSW) 2,300 6.3 -23.0°
Maximum altitude 18:51:28 15° 271° (W) 1,993 6.1 -23.5°
Drops below altitude 10° 18:54:16 10° 305° (NW) 2,309 6.2 -24.0°
Sets 18:57:40 0° 329° (NNW) 3,241 6.7 -24.6°
